The Dalles, WA

6:12 PM PDT on May 24, 2017 (GMT -0700)
Columbia Gorge Regional-The Dalles

Weather History for KDLS - October, 2011

Change the Weather History Date:

Friday, October 7, 2011

  Actual Average Record
Temperature  
Mean Temperature 60 °F -  
Max Temperature 66 °F 71 °F 90 °F (2014)
Min Temperature 55 °F 44 °F 31 °F (1974)
Degree Days  
Heating Degree Days 4    
Growing Degree Days 10 (Base 50)    
Moisture  
Dew Point 46 °F    
Average Humidity 62    
Maximum Humidity 72    
Minimum Humidity 49    
Precipitation  
Precipitation 0.00 in - - ()
Sea Level Pressure  
Sea Level Pressure 30.09 in    
Wind  
Wind Speed 14 mph (WNW)    
Max Wind Speed 20 mph    
Max Gust Speed 34 mph    
Visibility 10 miles    
Events      
Averages and records for this station are not official NWS values.
T = Trace of Precipitation, MM = Missing Value Source: NWS Daily Summary

Daily Weather History Graph

Daily Weather History Graph

Search for Another Location

Airport or City:

Trip Planner

Search our weather history database for the weather conditions in past years. The results will help you decide how hot, cold, wet, or windy it might be!

Date:

Astronomy

Oct. 07, 2011 Rise Set
Actual Time 7:10 AM PDT 6:33 PM PDT
Civil Twilight 6:40 AM PDT 7:03 PM PDT
Nautical Twilight 6:06 AM PDT 7:37 PM PDT
Astronomical Twilight 5:31 AM PDT 8:12 PM PDT
Moon 4:28 PM PDT (10/7) 2:53 AM PDT (10/7)
Length of Visible Light 12h 22m
Length of Day
11h 23m
Waxing Gibbous, 84% of the Moon is Illuminated
Oct 7
Waxing Gibbous
Oct 11
Full
Oct 19
Last Quarter
Oct 26
New
Nov 2
First Quarter

Hourly Weather History & Observations

Time (PDT) Temp. Dew Point Humidity Pressure Visibility Wind Dir Wind Speed Gust Speed Precip Events Conditions
12:53 AM 55.9 °F 44.1 °F 64% 30.01 in 10.0 mi WNW 18.4 mph 28.8 mph N/A   Clear
1:53 AM 57.0 °F 43.0 °F 59% 30.02 in 10.0 mi WNW 11.5 mph 25.3 mph N/A   Scattered Clouds
2:53 AM 57.0 °F 44.1 °F 62% 30.01 in 10.0 mi WNW 18.4 mph 25.3 mph N/A   Mostly Cloudy
3:53 AM 57.0 °F 44.1 °F 62% 30.01 in 10.0 mi West 9.2 mph 20.7 mph N/A   Partly Cloudy
4:53 AM 57.0 °F 45.0 °F 64% 30.02 in 10.0 mi WNW 18.4 mph 34.5 mph N/A   Overcast
5:53 AM 57.0 °F 45.0 °F 64% 30.04 in 10.0 mi WNW 16.1 mph - N/A   Overcast
6:53 AM 57.0 °F 44.1 °F 62% 30.05 in 10.0 mi WNW 12.7 mph 18.4 mph N/A   Overcast
7:53 AM 57.0 °F 45.0 °F 64% 30.06 in 10.0 mi WNW 17.3 mph 24.2 mph N/A   Partly Cloudy
10:53 AM 60.1 °F 46.9 °F 62% 30.10 in 10.0 mi NW 18.4 mph 27.6 mph N/A   Scattered Clouds
11:53 AM 64.9 °F 46.9 °F 52% 30.10 in 10.0 mi NW 15.0 mph 20.7 mph N/A   Mostly Cloudy
12:53 PM 64.9 °F 46.9 °F 52% 30.10 in 10.0 mi NNW 17.3 mph 25.3 mph N/A   Scattered Clouds
2:53 PM 66.9 °F 46.9 °F 49% 30.09 in 10.0 mi NW 17.3 mph 23.0 mph N/A   Clear
3:53 PM 66.0 °F 46.9 °F 50% 30.10 in 10.0 mi NW 19.6 mph 25.3 mph N/A   Clear
4:53 PM 64.9 °F 46.0 °F 50% 30.12 in 10.0 mi WNW 16.1 mph 23.0 mph N/A   Clear
5:53 PM 62.1 °F 46.9 °F 58% 30.12 in 10.0 mi NW 13.8 mph - N/A   Clear
6:53 PM 57.9 °F 48.0 °F 70% 30.14 in 10.0 mi NW 12.7 mph - N/A   Clear
7:53 PM 57.9 °F 48.0 °F 70% 30.17 in 10.0 mi WNW 9.2 mph - N/A   Partly Cloudy
8:53 PM 57.9 °F 48.0 °F 70% 30.17 in 10.0 mi WNW 9.2 mph - N/A   Overcast
9:53 PM 57.9 °F 48.9 °F 72% 30.18 in 10.0 mi WNW 4.6 mph - N/A   Overcast
10:53 PM 57.9 °F 48.0 °F 70% 30.18 in 10.0 mi Calm Calm - N/A   Overcast
11:53 PM 57.0 °F 48.0 °F 72% 30.19 in 10.0 mi Calm Calm - N/A   Partly Cloudy